Погода в Крымгиреевском

Россия / Ставропольский край     44°32′34″N   42°42′48″E
темп.,
°C
ветер,
м/с
пор.,
м/с
влажн.,
%
обл.,
%
осадки,
мм/ч
давл.,
гПа
погр.,
м
27 ноября, сб
сб2700:00−1вюв37955 0.0 1022135
03:00−1вюв36955 0.0 1021141
06:00−2вюв37968 0.0 1020150
09:00+1вюв598299 0.0 1019244
12:00+6вюв5659100 0.0 1018348
15:00+6вюв4666100 0.0 1017311
18:00+4вюв4888100 0.0 1019163
21:00+3в229066 0.0 101934
28 ноября, вс
вс2800:00+3юв379071 0.0 1018126
03:00+4юв2274100 0.0 101725
06:00+6юв2250100 0.0 101515
09:00+8вюв344196 0.0 101653
12:00+11св2239100 0.0 1015250
15:00+10всв2346100 0.0 1015277
18:00+8вюв356691 0.0 1016112
21:00+5вюв47855 0.0 1017138
29 ноября, пн
пн2900:00+4вюв369034 0.0 1016100
03:00+5юв228287 0.0 101618
06:00+4юв1276100 0.0 101710
09:00+6юв346522 0.0 101782
12:00+12вюв454381 0.0 1014237
15:00+13вюв464778 0.0 1013215
18:00+9вюв47663 0.0 1013112
21:00+8вюв46705 0.0 101094
30 ноября, вт
вт3000:00+8вюв2269100 0.0 100814
03:00+10ююв2255100 0.0 100611
06:00+10сз4858100 0.0 1006121
09:00+11зсз91677100 0.0 1009760
12:00+11з61579100 0.4 1007808
15:00+12з396699 0.4 1006609
18:00+10юв2383100 0.6 100567
21:00+10юв3887100 0.7 1002371
1 декабря, ср
ср100:00+9юв7159019 1.7 997634
03:00+9зсз61280100 2.9 1001935
06:00+7зсз35843 0.2 1001104
09:00+4з14238261 0.2 1008975
12:00+5зсз91666100 0.0 1009852
15:00+5зсз81460100 0.0 1009849
18:00+3зсз61473100 0.0 1011651
21:00+2зюз2584100 0.0 1013149